GLOBAL-33

Last updated on Wed Dec 31 2025 00:02:06 GMT+0000 (Coordinated Universal Time)

1 66554U 25267A 25364.33442853 .00020827 00000+0 66661-3 0 9996 2 66554 42.0214 315.4059 0005849 211.2267 148.8223 15.31951839 6105
UTC large
Height (km)
Speed (km/s)
/
Latitude / Longitude
Inclination (degrees)
Orbital Period (minutes)
Azimuth
Elevation
Range (km)
Doppler Factor

Next 0 passes for location: London (51.5072 / 0.1276)

Sorry there are no passes over London.